Simultaneous Nadir Overpasses (SNOs) Predictions

Prediction of SNOs between METOP-A and NOAA-19 Satellite Orbit:

Table of predicted SNOs for the next 14.0 days since TLE Epoch: 9/30/2017
Index Date (METOP-A) Time (METOP-A) Lat,Lon (METOP-A) SZA (METOP-A ) Date (NOAA-19) Time (NOAA-19) Lat,Lon (NOAA-19) SZA (NOAA-19 ) Distance(km) Time Diff (sec)
1 10/05/2017 06:45:04 -77.69, -95.42 97.41 10/05/2017 06:43:59 -77.71, -95.41 97.40 2.11 65
2 10/05/2017 07:35:44 77.70, 71.98 82.62 10/05/2017 07:34:55 77.69, 71.94 82.60 1.64 49
3 10/05/2017 08:26:26 -77.67,-120.85 97.41 10/05/2017 08:26:00 -77.69,-120.82 97.39 2.50 26
4 10/05/2017 09:17:06 77.68, 46.54 82.63 10/05/2017 09:16:56 77.67, 46.53 82.62 1.12 10
5 10/05/2017 10:07:48 -77.65,-146.29 97.40 10/05/2017 10:08:01 -77.67,-146.24 97.38 2.98 13
6 10/05/2017 10:58:28 77.66, 21.11 82.63 10/05/2017 10:58:57 77.65, 21.12 82.63 0.89 29
7 10/05/2017 11:49:09 -77.67,-171.53 97.35 10/05/2017 11:50:02 -77.65,-171.65 97.36 3.27 53
8 10/05/2017 12:39:50 77.64, -4.33 82.64 10/05/2017 12:40:58 77.63, -4.29 82.64 1.12 68




NCC Satellite Simultaneous Nadir Overpasses (SNOs) Prediction Service
